User: anonymous   Login
Location: Nelson
(41.2830°S, 173.2830°E)
Time: 14:58:00
(UTC+13:00)
Language:

H-2A R/B - Orbit

View from above orbital plane
View from above orbital plane
View from above satellite
View from above satellite

Ground track
Ground track

The orbit data is extracted from the following two-line orbital elements,

1 27601U 02056E   19287.80077457  .00000039  00000-0  29468-4 0  9999
2 27601  98.2623 330.8151 0070977 292.2989 163.5673 14.31912014879393
Epoch (UTC): 14 October 2019 19:13:06
Eccentricity: 0.0070977
inclination: 98.2623°
perigee height: 734 km
apogee height: 836 km
right ascension of ascending node: 330.8151°
argument of perigee: 292.2989°
revolutions per day: 14.31912014
mean anomaly at epoch: 163.5673°
orbit number at epoch: 87939

The dashed part of the orbit path shows where the satellite is in the earth's shadow,  

DLR